contact:dominique.lefevre@mio.osupytheas.fr, maurice.libes@osupytheas.fr, didier.mallarino@osupytheas.fr
Project:EMSO http://www.emso-fr.org/EMSO-France
Depth: 2436.0 m
Title:EMSO Ligure Ouest : Data MII capteur MICROCAT
DateTime_Computer,Latitude,Longitude,Temperature,Conductivity,Pressure,DateTime_Instrument
DateTime_Computer,Latitude,Longitude,degC,S m-1,dbar,DateTime_Instrument
2019-06-10T00:01:17Z,42.805,6.029,13.2955,4.59951,2469.89,2019-6-10T02:01:32Z
2019-06-10T00:04:20Z,42.805,6.029,13.2948,4.59951,2469.876,2019-6-10T02:04:35Z
2019-06-10T00:07:23Z,42.805,6.029,13.2953,4.59952,2469.876,2019-6-10T02:07:38Z
2019-06-10T00:10:26Z,42.805,6.029,13.2955,4.59951,2469.89,2019-6-10T02:10:41Z
2019-06-10T00:13:29Z,42.805,6.029,13.2952,4.59950,2469.89,2019-6-10T02:13:44Z
2019-06-10T00:16:32Z,42.805,6.029,13.2953,4.59951,2469.9,2019-6-10T02:16:47Z
2019-06-10T00:19:34Z,42.805,6.029,13.2953,4.59952,2469.89,2019-6-10T02:19:50Z
2019-06-10T00:22:37Z,42.805,6.029,13.2955,4.59952,2469.876,2019-6-10T02:22:53Z
2019-06-10T00:25:40Z,42.805,6.029,13.2956,4.59952,2469.876,2019-6-10T02:25:56Z
2019-06-10T00:28:43Z,42.805,6.029,13.2953,4.59954,2469.89,2019-6-10T02:28:59Z
2019-06-10T00:31:46Z,42.805,6.029,13.2955,4.59951,2469.9,2019-6-10T02:32:02Z
2019-06-10T00:34:49Z,42.805,6.029,13.2952,4.59951,2469.89,2019-6-10T02:35:05Z
2019-06-10T00:37:52Z,42.805,6.029,13.2953,4.59951,2469.89,2019-6-10T02:38:08Z
2019-06-10T00:40:55Z,42.805,6.029,13.2953,4.59950,2469.876,2019-6-10T02:41:11Z
2019-06-10T00:43:58Z,42.805,6.029,13.2948,4.59951,2469.89,2019-6-10T02:44:14Z
2019-06-10T00:47:01Z,42.805,6.029,13.2953,4.59951,2469.914,2019-6-10T02:47:17Z
2019-06-10T00:50:04Z,42.805,6.029,13.2954,4.59951,2469.914,2019-6-10T02:50:20Z
2019-06-10T00:53:07Z,42.805,6.029,13.2954,4.59950,2469.9,2019-6-10T02:53:23Z
2019-06-10T00:56:10Z,42.805,6.029,13.2952,4.59951,2469.914,2019-6-10T02:56:26Z
2019-06-10T00:59:13Z,42.805,6.029,13.2954,4.59951,2469.853,2019-6-10T02:59:29Z
2019-06-10T01:02:16Z,42.805,6.029,13.2952,4.59950,2469.914,2019-6-10T03:02:31Z
2019-06-10T01:05:19Z,42.805,6.029,13.2952,4.59950,2469.876,2019-6-10T03:05:34Z
2019-06-10T01:08:22Z,42.805,6.029,13.2952,4.59951,2469.876,2019-6-10T03:08:37Z
2019-06-10T01:11:25Z,42.805,6.029,13.2952,4.59950,2469.853,2019-6-10T03:11:40Z
2019-06-10T01:14:28Z,42.805,6.029,13.2953,4.59950,2469.914,2019-6-10T03:14:43Z
2019-06-10T01:17:30Z,42.805,6.029,13.2952,4.59950,2469.9,2019-6-10T03:17:46Z
2019-06-10T01:20:33Z,42.805,6.029,13.2953,4.59951,2469.89,2019-6-10T03:20:49Z
2019-06-10T01:23:36Z,42.805,6.029,13.2950,4.59950,2469.876,2019-6-10T03:23:52Z
2019-06-10T01:26:39Z,42.805,6.029,13.2952,4.59950,2469.914,2019-6-10T03:26:55Z
2019-06-10T01:29:42Z,42.805,6.029,13.2951,4.59951,2469.89,2019-6-10T03:29:58Z
2019-06-10T01:32:45Z,42.805,6.029,13.2953,4.59950,2469.876,2019-6-10T03:33:01Z
2019-06-10T01:35:48Z,42.805,6.029,13.2952,4.59952,2469.876,2019-6-10T03:36:04Z
2019-06-10T01:38:51Z,42.805,6.029,13.2953,4.59951,2469.876,2019-6-10T03:39:07Z
2019-06-10T01:41:54Z,42.805,6.029,13.2952,4.59950,2469.9,2019-6-10T03:42:10Z
2019-06-10T01:44:57Z,42.805,6.029,13.2952,4.59951,2469.876,2019-6-10T03:45:13Z
2019-06-10T01:48:00Z,42.805,6.029,13.2956,4.59951,2469.867,2019-6-10T03:48:16Z
2019-06-10T01:51:03Z,42.805,6.029,13.2953,4.59950,2469.876,2019-6-10T03:51:19Z
2019-06-10T01:54:06Z,42.805,6.029,13.2952,4.59950,2469.9,2019-6-10T03:54:22Z
2019-06-10T01:57:09Z,42.805,6.029,13.2953,4.59950,2469.89,2019-6-10T03:57:24Z
2019-06-10T02:00:12Z,42.805,6.029,13.2953,4.59952,2469.9,2019-6-10T04:00:27Z
2019-06-10T02:03:15Z,42.805,6.029,13.2957,4.59951,2469.876,2019-6-10T04:03:30Z
2019-06-10T02:06:18Z,42.805,6.029,13.2953,4.59951,2469.89,2019-6-10T04:06:33Z
2019-06-10T02:09:21Z,42.805,6.029,13.2953,4.59950,2469.867,2019-6-10T04:09:36Z
2019-06-10T02:12:24Z,42.805,6.029,13.2952,4.59950,2469.83,2019-6-10T04:12:39Z
2019-06-10T02:15:27Z,42.805,6.029,13.2952,4.59950,2469.89,2019-6-10T04:15:42Z
2019-06-10T02:18:29Z,42.805,6.029,13.2953,4.59951,2469.867,2019-6-10T04:18:45Z
2019-06-10T02:21:32Z,42.805,6.029,13.2953,4.59950,2469.867,2019-6-10T04:21:48Z
2019-06-10T02:24:35Z,42.805,6.029,13.2953,4.59950,2469.89,2019-6-10T04:24:51Z
2019-06-10T02:27:38Z,42.805,6.029,13.2953,4.59950,2469.853,2019-6-10T04:27:54Z
2019-06-10T02:30:41Z,42.805,6.029,13.2952,4.59951,2469.876,2019-6-10T04:30:57Z
2019-06-10T02:33:44Z,42.805,6.029,13.2956,4.59951,2469.867,2019-6-10T04:34:00Z
2019-06-10T02:36:47Z,42.805,6.029,13.2953,4.59951,2469.867,2019-6-10T04:37:03Z
2019-06-10T02:39:50Z,42.805,6.029,13.2948,4.59951,2469.853,2019-6-10T04:40:06Z
2019-06-10T02:42:53Z,42.805,6.029,13.2953,4.59951,2469.853,2019-6-10T04:43:09Z
2019-06-10T02:45:56Z,42.805,6.029,13.2953,4.59951,2469.89,2019-6-10T04:46:12Z
2019-06-10T02:48:59Z,42.805,6.029,13.2951,4.59951,2469.867,2019-6-10T04:49:15Z
2019-06-10T02:52:02Z,42.805,6.029,13.2949,4.59951,2469.853,2019-6-10T04:52:18Z
2019-06-10T02:55:05Z,42.805,6.029,13.2952,4.59952,2469.876,2019-6-10T04:55:21Z
2019-06-10T02:58:08Z,42.805,6.029,13.2954,4.59951,2469.853,2019-6-10T04:58:23Z
2019-06-10T03:01:11Z,42.805,6.029,13.2953,4.59951,2469.89,2019-6-10T05:01:26Z
2019-06-10T03:04:14Z,42.805,6.029,13.2953,4.59950,2469.867,2019-6-10T05:04:29Z
2019-06-10T03:07:17Z,42.805,6.029,13.2952,4.59950,2469.83,2019-6-10T05:07:32Z
2019-06-10T03:10:20Z,42.805,6.029,13.2953,4.59951,2469.853,2019-6-10T05:10:35Z
2019-06-10T03:13:23Z,42.805,6.029,13.2951,4.59950,2469.867,2019-6-10T05:13:38Z
2019-06-10T03:16:25Z,42.805,6.029,13.2955,4.59951,2469.867,2019-6-10T05:16:41Z
2019-06-10T03:19:28Z,42.805,6.029,13.2954,4.59951,2469.83,2019-6-10T05:19:44Z
2019-06-10T03:22:31Z,42.805,6.029,13.2953,4.59951,2469.844,2019-6-10T05:22:47Z
2019-06-10T03:25:34Z,42.805,6.029,13.2952,4.59951,2469.83,2019-6-10T05:25:50Z
2019-06-10T03:28:37Z,42.805,6.029,13.2956,4.59951,2469.83,2019-6-10T05:28:53Z
2019-06-10T03:31:40Z,42.805,6.029,13.2952,4.59951,2469.844,2019-6-10T05:31:56Z
2019-06-10T03:34:43Z,42.805,6.029,13.2954,4.59951,2469.844,2019-6-10T05:34:59Z
2019-06-10T03:37:46Z,42.805,6.029,13.2955,4.59952,2469.821,2019-6-10T05:38:02Z
2019-06-10T03:40:49Z,42.805,6.029,13.2953,4.59951,2469.853,2019-6-10T05:41:05Z
2019-06-10T03:43:52Z,42.805,6.029,13.2953,4.59950,2469.844,2019-6-10T05:44:08Z
2019-06-10T03:46:55Z,42.805,6.029,13.2952,4.59951,2469.844,2019-6-10T05:47:11Z
2019-06-10T03:49:58Z,42.805,6.029,13.2952,4.59953,2469.83,2019-6-10T05:50:14Z
2019-06-10T03:53:01Z,42.805,6.029,13.2955,4.59951,2469.83,2019-6-10T05:53:17Z
2019-06-10T03:56:04Z,42.805,6.029,13.2953,4.59951,2469.806,2019-6-10T05:56:20Z
2019-06-10T03:59:07Z,42.805,6.029,13.2953,4.59951,2469.844,2019-6-10T05:59:22Z
2019-06-10T04:02:10Z,42.805,6.029,13.2953,4.59951,2469.844,2019-6-10T06:02:25Z
2019-06-10T04:05:13Z,42.805,6.029,13.2952,4.59950,2469.844,2019-6-10T06:05:28Z
2019-06-10T04:08:16Z,42.805,6.029,13.2953,4.59950,2469.844,2019-6-10T06:08:31Z
2019-06-10T04:11:19Z,42.805,6.029,13.2953,4.59951,2469.806,2019-6-10T06:11:34Z
2019-06-10T04:14:22Z,42.805,6.029,13.2955,4.59950,2469.853,2019-6-10T06:14:37Z
2019-06-10T04:17:24Z,42.805,6.029,13.2955,4.59951,2469.844,2019-6-10T06:17:40Z
2019-06-10T04:20:27Z,42.805,6.029,13.2957,4.59952,2469.821,2019-6-10T06:20:43Z
2019-06-10T04:23:30Z,42.805,6.029,13.2952,4.59951,2469.821,2019-6-10T06:23:46Z
2019-06-10T04:26:33Z,42.805,6.029,13.2954,4.59953,2469.821,2019-6-10T06:26:49Z
2019-06-10T04:29:36Z,42.805,6.029,13.2954,4.59950,2469.806,2019-6-10T06:29:52Z
2019-06-10T04:32:39Z,42.805,6.029,13.2953,4.59951,2469.821,2019-6-10T06:32:55Z
2019-06-10T04:35:42Z,42.805,6.029,13.2952,4.59951,2469.806,2019-6-10T06:35:58Z
2019-06-10T04:38:45Z,42.805,6.029,13.2951,4.59952,2469.797,2019-6-10T06:39:01Z
2019-06-10T04:41:48Z,42.805,6.029,13.2952,4.59953,2469.821,2019-6-10T06:42:04Z
2019-06-10T04:44:51Z,42.805,6.029,13.2951,4.59951,2469.783,2019-6-10T06:45:07Z
2019-06-10T04:47:54Z,42.805,6.029,13.2952,4.59951,2469.806,2019-6-10T06:48:10Z
2019-06-10T04:50:57Z,42.805,6.029,13.2955,4.59951,2469.806,2019-6-10T06:51:13Z
2019-06-10T04:54:00Z,42.805,6.029,13.2952,4.59951,2469.797,2019-6-10T06:54:16Z
2019-06-10T04:57:03Z,42.805,6.029,13.2955,4.59952,2469.821,2019-6-10T06:57:19Z
2019-06-10T05:00:06Z,42.805,6.029,13.2952,4.59951,2469.783,2019-6-10T07:00:21Z
2019-06-10T05:03:09Z,42.805,6.029,13.2953,4.59951,2469.797,2019-6-10T07:03:24Z
2019-06-10T05:06:12Z,42.805,6.029,13.2955,4.59951,2469.769,2019-6-10T07:06:27Z
2019-06-10T05:09:15Z,42.805,6.029,13.2950,4.59950,2469.783,2019-6-10T07:09:30Z
2019-06-10T05:12:17Z,42.805,6.029,13.2952,4.59952,2469.797,2019-6-10T07:12:33Z
2019-06-10T05:15:20Z,42.805,6.029,13.2953,4.59951,2469.76,2019-6-10T07:15:36Z
2019-06-10T05:18:23Z,42.805,6.029,13.2952,4.59951,2469.783,2019-6-10T07:18:39Z
2019-06-10T05:21:26Z,42.805,6.029,13.2953,4.59951,2469.769,2019-6-10T07:21:42Z
2019-06-10T05:24:29Z,42.805,6.029,13.2953,4.59953,2469.773,2019-6-10T07:24:45Z
2019-06-10T05:27:32Z,42.805,6.029,13.2953,4.59951,2469.773,2019-6-10T07:27:48Z
2019-06-10T05:30:35Z,42.805,6.029,13.2956,4.59951,2469.783,2019-6-10T07:30:51Z
2019-06-10T05:33:38Z,42.805,6.029,13.2952,4.59951,2469.773,2019-6-10T07:33:54Z
2019-06-10T05:36:41Z,42.805,6.029,13.2953,4.59951,2469.783,2019-6-10T07:36:57Z
2019-06-10T05:39:44Z,42.805,6.029,13.2950,4.59951,2469.76,2019-6-10T07:40:00Z
2019-06-10T05:42:47Z,42.805,6.029,13.2955,4.59951,2469.773,2019-6-10T07:43:03Z
2019-06-10T05:45:50Z,42.805,6.029,13.2950,4.59956,2469.783,2019-6-10T07:46:06Z
2019-06-10T05:48:53Z,42.805,6.029,13.2956,4.59953,2469.713,2019-6-10T07:49:09Z
2019-06-10T05:51:56Z,42.805,6.029,13.2953,4.59951,2469.76,2019-6-10T07:52:12Z
2019-06-10T05:54:59Z,42.805,6.029,13.2952,4.59954,2469.76,2019-6-10T07:55:15Z
2019-06-10T05:58:02Z,42.805,6.029,13.2952,4.59952,2469.737,2019-6-10T07:58:17Z
2019-06-10T06:01:05Z,42.805,6.029,13.2953,4.59951,2469.773,2019-6-10T08:01:20Z
2019-06-10T06:04:08Z,42.805,6.029,13.2953,4.59951,2469.75,2019-6-10T08:04:23Z
2019-06-10T06:07:11Z,42.805,6.029,13.2953,4.59950,2469.75,2019-6-10T08:07:26Z
2019-06-10T06:10:14Z,42.805,6.029,13.2955,4.59954,2469.713,2019-6-10T08:10:29Z
2019-06-10T06:13:16Z,42.805,6.029,13.2955,4.59951,2469.737,2019-6-10T08:13:32Z
2019-06-10T06:16:19Z,42.805,6.029,13.2954,4.59952,2469.76,2019-6-10T08:16:35Z
2019-06-10T06:19:22Z,42.805,6.029,13.2950,4.59952,2469.75,2019-6-10T08:19:38Z
2019-06-10T06:22:25Z,42.805,6.029,13.2953,4.59950,2469.75,2019-6-10T08:22:41Z
2019-06-10T06:25:28Z,42.805,6.029,13.2957,4.59951,2469.727,2019-6-10T08:25:44Z
2019-06-10T06:28:31Z,42.805,6.029,13.2952,4.59952,2469.713,2019-6-10T08:28:47Z
2019-06-10T06:31:34Z,42.805,6.029,13.2951,4.59951,2469.737,2019-6-10T08:31:50Z
2019-06-10T06:34:37Z,42.805,6.029,13.2952,4.59950,2469.737,2019-6-10T08:34:53Z
2019-06-10T06:37:40Z,42.805,6.029,13.2953,4.59954,2469.713,2019-6-10T08:37:56Z
2019-06-10T06:40:43Z,42.805,6.029,13.2950,4.59952,2469.75,2019-6-10T08:40:59Z
2019-06-10T06:43:46Z,42.805,6.029,13.2953,4.59954,2469.737,2019-6-10T08:44:02Z
2019-06-10T06:46:49Z,42.805,6.029,13.2952,4.59951,2469.713,2019-6-10T08:47:05Z
2019-06-10T06:49:52Z,42.805,6.029,13.2953,4.59951,2469.699,2019-6-10T08:50:08Z
2019-06-10T06:52:55Z,42.805,6.029,13.2952,4.59951,2469.727,2019-6-10T08:53:11Z
2019-06-10T06:55:58Z,42.805,6.029,13.2957,4.59951,2469.713,2019-6-10T08:56:13Z
2019-06-10T06:59:01Z,42.805,6.029,13.2954,4.59951,2469.704,2019-6-10T08:59:16Z
2019-06-10T07:02:04Z,42.805,6.029,13.2952,4.59952,2469.737,2019-6-10T09:02:19Z
2019-06-10T07:05:07Z,42.805,6.029,13.2951,4.59951,2469.727,2019-6-10T09:05:22Z
2019-06-10T07:08:10Z,42.805,6.029,13.2951,4.59951,2469.727,2019-6-10T09:08:25Z
2019-06-10T07:11:13Z,42.805,6.029,13.2953,4.59950,2469.727,2019-6-10T09:11:28Z
2019-06-10T07:14:15Z,42.805,6.029,13.2952,4.59953,2469.737,2019-6-10T09:14:31Z
2019-06-10T07:17:18Z,42.805,6.029,13.2954,4.59952,2469.713,2019-6-10T09:17:34Z
2019-06-10T07:20:21Z,42.805,6.029,13.2954,4.59951,2469.704,2019-6-10T09:20:37Z
2019-06-10T07:23:24Z,42.805,6.029,13.2951,4.59956,2469.713,2019-6-10T09:23:40Z
2019-06-10T07:26:27Z,42.805,6.029,13.2953,4.59952,2469.704,2019-6-10T09:26:43Z
2019-06-10T07:29:30Z,42.805,6.029,13.2955,4.59951,2469.69,2019-6-10T09:29:46Z
2019-06-10T07:32:33Z,42.805,6.029,13.2951,4.59953,2469.704,2019-6-10T09:32:49Z
2019-06-10T07:35:36Z,42.805,6.029,13.2953,4.59951,2469.69,2019-6-10T09:35:52Z
2019-06-10T07:38:39Z,42.805,6.029,13.2951,4.59952,2469.667,2019-6-10T09:38:55Z
2019-06-10T07:41:42Z,42.805,6.029,13.2956,4.59951,2469.713,2019-6-10T09:41:58Z
2019-06-10T07:44:45Z,42.805,6.029,13.2954,4.59951,2469.713,2019-6-10T09:45:01Z
2019-06-10T07:47:48Z,42.805,6.029,13.2952,4.59950,2469.69,2019-6-10T09:48:04Z
2019-06-10T07:50:51Z,42.805,6.029,13.2952,4.59950,2469.667,2019-6-10T09:51:07Z
2019-06-10T07:53:54Z,42.805,6.029,13.2952,4.59949,2469.704,2019-6-10T09:54:10Z
2019-06-10T07:56:57Z,42.805,6.029,13.2953,4.59950,2469.69,2019-6-10T09:57:12Z
2019-06-10T08:00:00Z,42.805,6.029,13.2956,4.59951,2469.713,2019-6-10T10:00:15Z
2019-06-10T08:03:03Z,42.805,6.029,13.2952,4.59950,2469.727,2019-6-10T10:03:18Z
2019-06-10T08:06:06Z,42.805,6.029,13.2952,4.59951,2469.69,2019-6-10T10:06:21Z
2019-06-10T08:09:09Z,42.805,6.029,13.2948,4.59950,2469.704,2019-6-10T10:09:24Z
2019-06-10T08:12:11Z,42.805,6.029,13.2950,4.59951,2469.713,2019-6-10T10:12:27Z
2019-06-10T08:15:14Z,42.805,6.029,13.2949,4.59951,2469.69,2019-6-10T10:15:30Z
2019-06-10T08:18:17Z,42.805,6.029,13.2952,4.59951,2469.69,2019-6-10T10:18:33Z
2019-06-10T08:21:20Z,42.805,6.029,13.2953,4.59950,2469.704,2019-6-10T10:21:36Z
2019-06-10T08:24:23Z,42.805,6.029,13.2950,4.59952,2469.69,2019-6-10T10:24:39Z
2019-06-10T08:27:26Z,42.805,6.029,13.2952,4.59954,2469.704,2019-6-10T10:27:42Z
2019-06-10T08:30:29Z,42.805,6.029,13.2952,4.59951,2469.667,2019-6-10T10:30:45Z
2019-06-10T08:33:32Z,42.805,6.029,13.2955,4.59951,2469.704,2019-6-10T10:33:48Z
2019-06-10T08:36:35Z,42.805,6.029,13.2951,4.59951,2469.704,2019-6-10T10:36:51Z
2019-06-10T08:39:38Z,42.805,6.029,13.2952,4.59951,2469.704,2019-6-10T10:39:54Z
2019-06-10T08:42:41Z,42.805,6.029,13.2955,4.59951,2469.68,2019-6-10T10:42:57Z
2019-06-10T08:45:44Z,42.805,6.029,13.2951,4.59951,2469.69,2019-6-10T10:46:00Z
2019-06-10T08:48:47Z,42.805,6.029,13.2952,4.59950,2469.713,2019-6-10T10:49:03Z
2019-06-10T08:51:50Z,42.805,6.029,13.2953,4.59951,2469.713,2019-6-10T10:52:06Z
2019-06-10T08:54:53Z,42.805,6.029,13.2952,4.59951,2469.727,2019-6-10T10:55:09Z
2019-06-10T08:57:56Z,42.805,6.029,13.2953,4.59950,2469.69,2019-6-10T10:58:12Z
2019-06-10T09:00:59Z,42.805,6.029,13.2953,4.59952,2469.69,2019-6-10T11:01:14Z
2019-06-10T09:04:02Z,42.805,6.029,13.2952,4.59951,2469.704,2019-6-10T11:04:17Z
2019-06-10T09:07:05Z,42.805,6.029,13.2956,4.59950,2469.75,2019-6-10T11:07:20Z
2019-06-10T09:10:08Z,42.805,6.029,13.2952,4.59951,2469.737,2019-6-10T11:10:23Z
2019-06-10T09:13:11Z,42.805,6.029,13.2951,4.59951,2469.737,2019-6-10T11:13:26Z
2019-06-10T09:16:14Z,42.805,6.029,13.2952,4.59951,2469.727,2019-6-10T11:16:29Z
2019-06-10T09:19:16Z,42.805,6.029,13.2953,4.59951,2469.704,2019-6-10T11:19:32Z
2019-06-10T09:22:19Z,42.805,6.029,13.2955,4.59952,2469.704,2019-6-10T11:22:35Z
2019-06-10T09:25:22Z,42.805,6.029,13.2957,4.59950,2469.69,2019-6-10T11:25:38Z
2019-06-10T09:28:25Z,42.805,6.029,13.2957,4.59952,2469.713,2019-6-10T11:28:41Z
2019-06-10T09:31:28Z,42.805,6.029,13.2950,4.59951,2469.737,2019-6-10T11:31:44Z
2019-06-10T09:34:31Z,42.805,6.029,13.2952,4.59950,2469.727,2019-6-10T11:34:47Z
2019-06-10T09:37:34Z,42.805,6.029,13.2953,4.59954,2469.727,2019-6-10T11:37:50Z
2019-06-10T09:40:37Z,42.805,6.029,13.2951,4.59951,2469.737,2019-6-10T11:40:53Z
2019-06-10T09:43:40Z,42.805,6.029,13.2953,4.59951,2469.727,2019-6-10T11:43:56Z
2019-06-10T09:46:43Z,42.805,6.029,13.2950,4.59951,2469.727,2019-6-10T11:46:59Z
2019-06-10T09:49:46Z,42.805,6.029,13.2951,4.59951,2469.713,2019-6-10T11:50:02Z
2019-06-10T09:52:49Z,42.805,6.029,13.2952,4.59951,2469.713,2019-6-10T11:53:05Z
2019-06-10T09:55:52Z,42.805,6.029,13.2958,4.59951,2469.75,2019-6-10T11:56:08Z
2019-06-10T09:58:55Z,42.805,6.029,13.2950,4.59951,2469.713,2019-6-10T11:59:11Z
2019-06-10T10:01:58Z,42.805,6.029,13.2952,4.59951,2469.704,2019-6-10T12:02:14Z
2019-06-10T10:05:01Z,42.805,6.029,13.2950,4.59951,2469.713,2019-6-10T12:05:16Z
2019-06-10T10:08:04Z,42.805,6.029,13.2951,4.59952,2469.737,2019-6-10T12:08:19Z
2019-06-10T10:11:07Z,42.805,6.029,13.2953,4.59951,2469.737,2019-6-10T12:11:22Z
2019-06-10T10:14:10Z,42.805,6.029,13.2955,4.59954,2469.727,2019-6-10T12:14:25Z
2019-06-10T10:17:13Z,42.805,6.029,13.2953,4.59951,2469.69,2019-6-10T12:17:28Z
2019-06-10T10:20:16Z,42.805,6.029,13.2957,4.59951,2469.75,2019-6-10T12:20:31Z
2019-06-10T10:23:19Z,42.805,6.029,13.2953,4.59951,2469.727,2019-6-10T12:23:34Z
2019-06-10T10:26:21Z,42.805,6.029,13.2951,4.59952,2469.69,2019-6-10T12:26:37Z
2019-06-10T10:29:24Z,42.805,6.029,13.2955,4.59951,2469.737,2019-6-10T12:29:40Z
2019-06-10T10:32:27Z,42.805,6.029,13.2953,4.59951,2469.704,2019-6-10T12:32:43Z
2019-06-10T10:35:30Z,42.805,6.029,13.2953,4.59951,2469.727,2019-6-10T12:35:46Z
2019-06-10T10:38:33Z,42.805,6.029,13.2953,4.59952,2469.773,2019-6-10T12:38:49Z
2019-06-10T10:41:36Z,42.805,6.029,13.2953,4.59952,2469.713,2019-6-10T12:41:52Z
2019-06-10T10:44:39Z,42.805,6.029,13.2955,4.59951,2469.75,2019-6-10T12:44:55Z
2019-06-10T10:47:42Z,42.805,6.029,13.2953,4.59954,2469.797,2019-6-10T12:47:58Z
2019-06-10T10:50:45Z,42.805,6.029,13.2956,4.59952,2469.75,2019-6-10T12:51:01Z
2019-06-10T10:53:48Z,42.805,6.029,13.2957,4.59951,2469.727,2019-6-10T12:54:04Z
2019-06-10T10:56:51Z,42.805,6.029,13.2952,4.59952,2469.75,2019-6-10T12:57:07Z
2019-06-10T10:59:54Z,42.805,6.029,13.2952,4.59952,2469.773,2019-6-10T13:00:10Z
2019-06-10T11:02:57Z,42.805,6.029,13.2952,4.59952,2469.737,2019-6-10T13:03:13Z
2019-06-10T11:06:00Z,42.805,6.029,13.2955,4.59952,2469.727,2019-6-10T13:06:16Z
2019-06-10T11:09:03Z,42.805,6.029,13.2951,4.59951,2469.737,2019-6-10T13:09:19Z
2019-06-10T11:12:06Z,42.805,6.029,13.2953,4.59951,2469.75,2019-6-10T13:12:21Z
2019-06-10T11:15:09Z,42.805,6.029,13.2952,4.59951,2469.713,2019-6-10T13:15:24Z
2019-06-10T11:18:12Z,42.805,6.029,13.2951,4.59951,2469.783,2019-6-10T13:18:27Z
2019-06-10T11:21:15Z,42.805,6.029,13.2953,4.59951,2469.737,2019-6-10T13:21:30Z
2019-06-10T11:24:18Z,42.805,6.029,13.2952,4.59953,2469.76,2019-6-10T13:24:33Z
2019-06-10T11:27:21Z,42.805,6.029,13.2952,4.59952,2469.773,2019-6-10T13:27:36Z
2019-06-10T11:30:23Z,42.805,6.029,13.2952,4.59953,2469.737,2019-6-10T13:30:39Z
2019-06-10T11:33:26Z,42.805,6.029,13.2953,4.59951,2469.75,2019-6-10T13:33:42Z
2019-06-10T11:36:29Z,42.805,6.029,13.2953,4.59952,2469.76,2019-6-10T13:36:45Z
2019-06-10T11:39:32Z,42.805,6.029,13.2952,4.59951,2469.75,2019-6-10T13:39:48Z
2019-06-10T11:42:35Z,42.805,6.029,13.2956,4.59951,2469.76,2019-6-10T13:42:51Z
2019-06-10T11:45:38Z,42.805,6.029,13.2953,4.59953,2469.75,2019-6-10T13:45:54Z
2019-06-10T11:48:41Z,42.805,6.029,13.2951,4.59951,2469.727,2019-6-10T13:48:57Z
2019-06-10T11:51:44Z,42.805,6.029,13.2957,4.59951,2469.75,2019-6-10T13:52:00Z
2019-06-10T11:54:47Z,42.805,6.029,13.2954,4.59951,2469.76,2019-6-10T13:55:03Z
2019-06-10T11:57:50Z,42.805,6.029,13.2953,4.59951,2469.797,2019-6-10T13:58:06Z
2019-06-10T12:00:53Z,42.805,6.029,13.2953,4.59951,2469.773,2019-6-10T14:01:09Z
2019-06-10T12:03:56Z,42.805,6.029,13.2952,4.59953,2469.773,2019-6-10T14:04:12Z
2019-06-10T12:06:59Z,42.805,6.029,13.2948,4.59951,2469.773,2019-6-10T14:07:15Z
2019-06-10T12:10:02Z,42.805,6.029,13.2953,4.59951,2469.737,2019-6-10T14:10:18Z
2019-06-10T12:13:05Z,42.805,6.029,13.2952,4.59951,2469.737,2019-6-10T14:13:21Z
2019-06-10T12:16:08Z,42.805,6.029,13.2956,4.59954,2469.76,2019-6-10T14:16:23Z
2019-06-10T12:19:11Z,42.805,6.029,13.2952,4.59951,2469.75,2019-6-10T14:19:26Z
2019-06-10T12:22:14Z,42.805,6.029,13.2953,4.59951,2469.773,2019-6-10T14:22:29Z
2019-06-10T12:25:17Z,42.805,6.029,13.2952,4.59954,2469.75,2019-6-10T14:25:32Z
2019-06-10T12:28:20Z,42.805,6.029,13.2952,4.59952,2469.773,2019-6-10T14:28:35Z
2019-06-10T12:31:23Z,42.805,6.029,13.2958,4.59951,2469.75,2019-6-10T14:31:38Z
2019-06-10T12:34:25Z,42.805,6.029,13.2953,4.59951,2469.76,2019-6-10T14:34:41Z
2019-06-10T12:37:28Z,42.805,6.029,13.2958,4.59951,2469.737,2019-6-10T14:37:44Z
2019-06-10T12:40:31Z,42.805,6.029,13.2953,4.59951,2469.75,2019-6-10T14:40:47Z
2019-06-10T12:43:34Z,42.805,6.029,13.2952,4.59951,2469.75,2019-6-10T14:43:50Z
2019-06-10T12:46:37Z,42.805,6.029,13.2955,4.59952,2469.773,2019-6-10T14:46:53Z
2019-06-10T12:49:40Z,42.805,6.029,13.2952,4.59951,2469.76,2019-6-10T14:49:56Z
2019-06-10T12:52:43Z,42.805,6.029,13.2957,4.59951,2469.737,2019-6-10T14:52:59Z
2019-06-10T12:55:46Z,42.805,6.029,13.2953,4.59954,2469.76,2019-6-10T14:56:02Z
2019-06-10T12:58:49Z,42.805,6.029,13.2957,4.59952,2469.76,2019-6-10T14:59:05Z
2019-06-10T13:01:52Z,42.805,6.029,13.2955,4.59952,2469.76,2019-6-10T15:02:08Z
2019-06-10T13:04:55Z,42.805,6.029,13.2954,4.59951,2469.76,2019-6-10T15:05:11Z
2019-06-10T13:07:58Z,42.805,6.029,13.2949,4.59951,2469.75,2019-6-10T15:08:14Z
2019-06-10T13:11:01Z,42.805,6.029,13.2954,4.59951,2469.737,2019-6-10T15:11:17Z
2019-06-10T13:14:04Z,42.805,6.029,13.2950,4.59952,2469.783,2019-6-10T15:14:20Z
2019-06-10T13:17:07Z,42.805,6.029,13.2950,4.59952,2469.76,2019-6-10T15:17:23Z
2019-06-10T13:20:10Z,42.805,6.029,13.2952,4.59953,2469.76,2019-6-10T15:20:25Z
2019-06-10T13:23:13Z,42.805,6.029,13.2948,4.59952,2469.76,2019-6-10T15:23:28Z
2019-06-10T13:26:16Z,42.805,6.029,13.2957,4.59952,2469.773,2019-6-10T15:26:31Z
2019-06-10T13:29:19Z,42.805,6.029,13.2949,4.59951,2469.773,2019-6-10T15:29:34Z
2019-06-10T13:32:22Z,42.805,6.029,13.2952,4.59951,2469.773,2019-6-10T15:32:37Z
2019-06-10T13:35:25Z,42.805,6.029,13.2953,4.59951,2469.76,2019-6-10T15:35:40Z
2019-06-10T13:38:28Z,42.805,6.029,13.2951,4.59951,2469.76,2019-6-10T15:38:43Z
2019-06-10T13:41:30Z,42.805,6.029,13.2955,4.59951,2469.76,2019-6-10T15:41:46Z
2019-06-10T13:44:33Z,42.805,6.029,13.2955,4.59951,2469.76,2019-6-10T15:44:49Z
2019-06-10T13:47:36Z,42.805,6.029,13.2948,4.59951,2469.773,2019-6-10T15:47:52Z
2019-06-10T13:50:39Z,42.805,6.029,13.2955,4.59951,2469.773,2019-6-10T15:50:55Z
2019-06-10T13:53:42Z,42.805,6.029,13.2953,4.59951,2469.76,2019-6-10T15:53:58Z
2019-06-10T13:56:45Z,42.805,6.029,13.2954,4.59951,2469.76,2019-6-10T15:57:01Z
2019-06-10T13:59:48Z,42.805,6.029,13.2955,4.59951,2469.737,2019-6-10T16:00:04Z
2019-06-10T14:02:51Z,42.805,6.029,13.2948,4.59951,2469.76,2019-6-10T16:03:07Z
2019-06-10T14:05:54Z,42.805,6.029,13.2953,4.59951,2469.75,2019-6-10T16:06:10Z
2019-06-10T14:08:57Z,42.805,6.029,13.2955,4.59951,2469.75,2019-6-10T16:09:13Z
2019-06-10T14:12:00Z,42.805,6.029,13.2953,4.59951,2469.713,2019-6-10T16:12:16Z
2019-06-10T14:15:03Z,42.805,6.029,13.2952,4.59951,2469.737,2019-6-10T16:15:19Z
2019-06-10T14:18:06Z,42.805,6.029,13.2954,4.59951,2469.773,2019-6-10T16:18:22Z
2019-06-10T14:21:09Z,42.805,6.029,13.2953,4.59951,2469.713,2019-6-10T16:21:25Z
2019-06-10T14:24:12Z,42.805,6.029,13.2952,4.59951,2469.75,2019-6-10T16:24:28Z
2019-06-10T14:27:15Z,42.805,6.029,13.2953,4.59952,2469.76,2019-6-10T16:27:31Z
2019-06-10T14:30:18Z,42.805,6.029,13.2948,4.59951,2469.737,2019-6-10T16:30:33Z
2019-06-10T14:33:21Z,42.805,6.029,13.2953,4.59950,2469.727,2019-6-10T16:33:36Z
2019-06-10T14:36:24Z,42.805,6.029,13.2954,4.59951,2469.75,2019-6-10T16:36:39Z
2019-06-10T14:39:27Z,42.805,6.029,13.2951,4.59951,2469.75,2019-6-10T16:39:42Z
2019-06-10T14:42:30Z,42.805,6.029,13.2952,4.59951,2469.713,2019-6-10T16:42:45Z
2019-06-10T14:45:32Z,42.805,6.029,13.2953,4.59950,2469.737,2019-6-10T16:45:48Z
2019-06-10T14:48:35Z,42.805,6.029,13.2953,4.59952,2469.737,2019-6-10T16:48:51Z
2019-06-10T14:51:38Z,42.805,6.029,13.2954,4.59951,2469.76,2019-6-10T16:51:54Z
2019-06-10T14:54:41Z,42.805,6.029,13.2955,4.59950,2469.727,2019-6-10T16:54:57Z
2019-06-10T14:57:44Z,42.805,6.029,13.2956,4.59951,2469.737,2019-6-10T16:58:00Z
2019-06-10T15:00:47Z,42.805,6.029,13.2952,4.59951,2469.713,2019-6-10T17:01:03Z
2019-06-10T15:03:50Z,42.805,6.029,13.2953,4.59951,2469.713,2019-6-10T17:04:06Z
2019-06-10T15:06:53Z,42.805,6.029,13.2953,4.59951,2469.76,2019-6-10T17:07:09Z
2019-06-10T15:09:56Z,42.805,6.029,13.2952,4.59952,2469.76,2019-6-10T17:10:12Z
2019-06-10T15:12:59Z,42.805,6.029,13.2952,4.59951,2469.737,2019-6-10T17:13:15Z